QPF
0.00 0.00 0.00 0.00 0.00 0.00 0.00 0.00 0.00 0.00 0.00 0.00 0.00 0.00 0.00 0.00 0.00 0.00 0.00 0.00 0.00 0.00 0.00 0.00 0.00 0.00 0.00 0.00 0.00 0.00 0.00 0.00 0.00 0.00 0.00 0.00 0.00 0.00 0.00 0.00 0.00 0.00
0.00 0.00 0.00 0.00 0.00 0.00 0.00 0.00 0.00 0.00 0.00 0.00 0.00 0.00 0.00 0.00 0.00 0.00 0.00 0.00 0.00 0.00 0.00 0.00 0.00 0.00 0.00 0.00 0.00 0.00 0.00 0.00 0.00 0.00 0.00 0.00 0.00 0.00 0.00 0.00 0.00 0.00
0.00 0.00 0.00 0.00 0.00 0.00 0.00 0.00 0.00 0.00 0.00 0.00 0.00 0.00 0.00 0.00 0.00 0.00 0.00 0.00 0.00 0.00 0.00 0.00 0.00 0.00 0.00 0.00 0.00 0.00 0.00 0.00 0.00 0.00 0.00 0.00 0.00 0.00 0.00 0.00 0.00 0.00
0.00 0.00 0.00 0.00 0.00 0.00 0.00 0.00 0.00 0.00 0.00 0.00 0.00 0.00 0.00 0.00 0.00 0.00 0.00 0.00 0.00 0.00 0.00 0.00 0.00 0.00 0.00 0.00 0.00 0.00 0.00 0.00 0.00 0.00 0.00 0.00 0.00 0.00 0.00 0.00 0.00 0.00
0.00 0.00 0.00 0.00 0.00 0.00 0.00 0.00 0.00 0.00 0.00 0.00 0.00 0.00 0.00 0.00 0.00 0.00 0.00 0.00 0.00 0.00 0.00 0.00 0.00 0.00 0.00 0.00 0.00 0.00 0.00 0.00 0.00 0.00 0.00 0.00 0.00 0.00 0.00 0.00 0.00 0.00
0.00 0.00 0.00 0.00 0.00 0.00 0.00 0.00 0.00 0.00 0.00 0.00 0.00 0.00 0.00 0.00 0.00 0.00 0.00 0.00 0.00 0.00 0.00 0.00 0.00 0.00 0.00 0.00 0.00 0.00 0.00 0.00 0.00 0.00 0.00 0.00 0.00 0.00 0.00 0.00 0.00 0.00
0.00 0.00 0.00 0.00 0.00 0.00 0.00 0.00 0.00 0.00 0.00 0.00 0.00 0.00 0.00 0.00 0.00 0.00 0.00 0.00 0.00 0.00 0.00 0.00 0.00 0.00 0.00 0.00 0.00 0.00 0.00 0.00 0.00 0.00 0.00 0.00 0.00 0.00 0.00 0.00 0.00 0.00
0.00 0.00 0.00 0.00 0.00 0.00 0.00 0.00 0.00 0.00 0.00 0.00 0.00 0.00 0.00 0.00 0.00 0.00 0.00 0.00 0.00 0.00 0.00 0.00 0.00 0.00 0.00 0.00 0.00 0.00 0.00 0.00 0.00 0.00 0.00 0.00 0.00 0.00 0.00 0.00 0.00 0.00
0.00 0.00 0.00 0.00 0.00 0.00 0.00 0.00 0.00 0.00 0.00 0.00 0.00 0.00 0.00 0.00 0.00 0.00 0.00 0.00 0.00 0.00 0.00 0.00 0.00 0.00 0.00 0.00 0.00 0.00 0.00 0.00 0.00 0.00 0.00 0.00 0.00 0.00 0.00 0.00 0.00 0.00
0.00 0.00 0.00 0.00 0.00 0.00 0.00 0.00 0.00 0.00 0.00 0.00 0.00 0.00 0.00 0.00 0.00 0.00 0.00 0.00 0.00 0.00 0.00 0.00 0.00 0.00 0.00 0.00 0.00 0.00 0.00 0.00 0.00 0.00 0.00 0.00 0.00 0.00 0.00 0.00 0.00 0.00
0.00 0.00 0.00 0.00 0.00 0.00 0.00 0.00 0.00 0.00 0.00 0.00 0.00 0.00 0.00 0.00 0.00 0.00 0.00 0.00 0.00 0.00 0.00 0.00 0.00 0.00 0.00 0.00 0.00 0.00 0.00 0.00 0.00 0.00 0.00 0.00 0.00 0.00 0.00 0.00 0.00 0.00
0.00 0.00 0.00 0.00 0.00 0.00 0.00 0.00 0.00 0.00 0.00 0.00 0.00 0.00 0.00 0.00 0.00 0.00 0.00 0.00 0.00 0.00 0.00 0.00 0.00 0.00 0.00 0.00 0.00 0.00 0.00 0.00 0.00 0.00 0.00 0.00 0.00 0.00 0.00 0.00 0.00 0.00
0.00 0.00 0.00 0.00 0.00 0.00 0.00 0.00 0.00 0.00 0.00 0.00 0.00 0.00 0.00 0.00 0.00 0.00 0.00 0.00 0.00 0.00 0.00 0.00 0.00 0.00 0.00 0.00 0.00 0.00 0.00 0.00 0.00 0.00 0.00 0.00 0.00 0.00 0.00 0.00 0.00 0.00
0.00 0.00 0.00 0.00 0.00 0.00 0.00 0.00 0.00 0.00 0.00 0.00 0.00 0.00 0.00 0.00 0.00 0.00 0.00 0.00 0.00 0.00 0.00 0.00 0.00 0.00 0.00 0.00 0.00 0.00 0.00 0.00 0.00 0.00 0.00 0.00 0.00 0.00 0.00 0.00 0.00 0.00
0.00 0.00 0.00 0.00 0.00 0.00 0.00 0.00 0.00 0.00 0.00 0.00 0.00 0.00 0.00 0.00 0.00 0.00 0.00 0.00 0.00 0.00 0.00 0.00 0.00 0.00 0.00 0.00 0.00 0.00 0.00 0.00 0.00 0.00 0.00 0.00 0.00 0.00 0.00 0.01 0.01 0.01
0.00 0.00 0.00 0.00 0.00 0.00 0.00 0.00 0.00 0.00 0.00 0.00 0.00 0.00 0.00 0.00 0.00 0.00 0.00 0.00 0.00 0.00 0.00 0.00 0.00 0.00 0.00 0.00 0.00 0.00 0.00 0.00 0.00 0.00 0.00 0.00 0.00 0.01 0.01 0.01 0.01 0.01
0.00 0.00 0.00 0.00 0.00 0.00 0.00 0.00 0.00 0.00 0.00 0.00 0.00 0.00 0.00 0.00 0.00 0.00 0.00 0.00 0.00 0.00 0.00 0.00 0.00 0.00 0.00 0.00 0.00 0.00 0.00 0.00 0.00 0.00 0.00 0.00 0.01 0.01 0.01 0.01 0.01 0.01
0.00 0.00 0.00 0.00 0.00 0.00 0.00 0.00 0.00 0.00 0.00 0.00 0.00 0.00 0.00 0.00 0.00 0.00 0.00 0.00 0.00 0.00 0.00 0.00 0.00 0.00 0.00 0.00 0.00 0.00 0.00 0.00 0.00 0.00 0.01 0.01 0.01 0.01 0.01 0.01 0.01 0.01
0.00 0.00 0.00 0.00 0.00 0.00 0.00 0.00 0.00 0.00 0.00 0.00 0.00 0.00 0.00 0.00 0.00 0.00 0.00 0.00 0.00 0.00 0.00 0.00 0.00 0.00 0.00 0.00 0.00 0.00 0.00 0.00 0.01 0.00 0.00 0.01 0.01 0.01 0.01 0.01 0.01 0.01
0.00 0.00 0.00 0.00 0.00 0.00 0.00 0.00 0.00 0.00 0.00 0.00 0.00 0.00 0.00 0.00 0.00 0.00 0.00 0.00 0.00 0.00 0.00 0.00 0.00 0.00 0.00 0.00 0.00 0.00 0.00 0.01 0.01 0.00 0.00 0.00 0.01 0.01 0.01 0.01 0.02 0.02
0.00 0.00 0.00 0.00 0.00 0.00 0.00 0.00 0.00 0.00 0.00 0.00 0.00 0.00 0.00 0.00 0.00 0.00 0.00 0.00 0.00 0.00 0.00 0.00 0.00 0.00 0.00 0.00 0.00 0.00 0.00 0.00 0.00 0.00 0.00 0.00 0.00 0.00 0.01 0.01 0.01 0.01
0.00 0.00 0.00 0.00 0.00 0.00 0.00 0.00 0.00 0.00 0.00 0.00 0.00 0.00 0.00 0.00 0.00 0.00 0.00 0.00 0.00 0.00 0.00 0.00 0.00 0.00 0.00 0.00 0.00 0.00 0.00 0.00 0.00 0.00 0.00 0.00 0.00 0.00 0.00 0.01 0.01 0.01
0.00 0.00 0.00 0.00 0.00 0.00 0.00 0.00 0.00 0.00 0.00 0.00 0.00 0.00 0.00 0.00 0.00 0.00 0.00 0.00 0.00 0.00 0.00 0.00 0.00 0.00 0.00 0.00 0.00 0.00 0.00 0.00 0.00 0.00 0.00 0.00 0.00 0.00 0.00 0.00 0.00 0.00
0.00 0.00 0.00 0.00 0.00 0.00 0.00 0.00 0.00 0.00 0.00 0.00 0.00 0.00 0.00 0.00 0.00 0.00 0.00 0.00 0.00 0.00 0.00 0.00 0.00 0.00 0.00 0.00 0.00 0.00 0.00 0.00 0.00 0.00 0.00 0.00 0.00 0.00 0.00 0.00 0.00 0.00
0.00 0.00 0.00 0.00 0.00 0.00 0.00 0.00 0.00 0.00 0.00 0.00 0.00 0.00 0.00 0.00 0.00 0.00 0.00 0.00 0.00 0.00 0.00 0.00 0.00 0.00 0.00 0.00 0.00 0.00 0.00 0.00 0.00 0.00 0.00 0.00 0.00 0.00 0.00 0.00 0.00 0.00
0.00 0.00 0.00 0.00 0.00 0.00 0.00 0.00 0.00 0.00 0.00 0.00 0.00 0.00 0.00 0.00 0.00 0.00 0.00 0.00 0.00 0.00 0.00 0.00 0.00 0.00 0.00 0.00 0.00 0.00 0.00 0.00 0.00 0.00 0.00 0.00 0.00 0.00 0.00 0.00 0.00 0.00
MSLP
1009.96 1010.12 1010.32 1010.44 1010.44 1010.48 1010.56 1010.72 1010.72 1010.84 1010.92 1010.96 1011.16 1011.20 1011.32 1011.40 1011.60 1011.80 1011.96 1012.16 1012.28 1012.40 1012.48 1012.60 1012.76 1012.92 1013.08 1013.20 1013.32 1013.48 1013.60 1013.64 1013.76 1013.80 1013.80 1013.88 1013.96 1014.00 1014.12 1014.08 1014.12 1014.08
1009.44 1009.64 1009.88 1010.08 1010.16 1010.12 1010.12 1010.16 1010.32 1010.44 1010.52 1010.56 1010.60 1010.72 1010.84 1011.00 1011.16 1011.28 1011.52 1011.72 1011.84 1011.96 1012.00 1012.16 1012.28 1012.40 1012.56 1012.76 1012.84 1013.04 1013.16 1013.28 1013.32 1013.24 1013.32 1013.40 1013.36 1013.44 1013.44 1013.44 1013.56 1013.60
1009.12 1009.32 1009.48 1009.68 1009.72 1009.76 1009.84 1009.92 1010.00 1010.08 1010.16 1010.16 1010.24 1010.36 1010.48 1010.56 1010.76 1010.92 1011.08 1011.24 1011.44 1011.56 1011.64 1011.72 1011.88 1012.00 1012.12 1012.24 1012.36 1012.56 1012.72 1012.80 1012.88 1012.80 1012.84 1012.92 1012.92 1012.96 1012.80 1013.00 1013.08 1013.12
1008.84 1008.92 1009.08 1009.20 1009.36 1009.52 1009.60 1009.76 1009.80 1009.88 1009.92 1010.04 1010.04 1010.08 1010.12 1010.20 1010.32 1010.52 1010.68 1010.84 1011.04 1011.20 1011.32 1011.48 1011.60 1011.72 1011.84 1011.96 1012.16 1012.32 1012.36 1012.44 1012.40 1012.48 1012.60 1012.60 1012.60 1012.56 1012.52 1012.56 1012.56 1012.68
1008.60 1008.68 1008.76 1008.88 1009.04 1009.20 1009.36 1009.52 1009.60 1009.64 1009.72 1009.72 1009.76 1009.80 1009.88 1009.96 1010.12 1010.28 1010.36 1010.52 1010.68 1010.88 1011.04 1011.20 1011.32 1011.48 1011.64 1011.80 1011.96 1012.16 1012.24 1012.28 1012.24 1012.28 1012.28 1012.28 1012.20 1012.24 1012.16 1012.24 1012.12 1012.12
1008.44 1008.48 1008.52 1008.68 1008.80 1008.96 1009.16 1009.20 1009.24 1009.36 1009.44 1009.52 1009.52 1009.56 1009.60 1009.72 1009.84 1009.92 1010.08 1010.28 1010.44 1010.56 1010.72 1010.84 1010.96 1011.04 1011.16 1011.28 1011.44 1011.56 1011.68 1011.80 1011.72 1011.72 1011.76 1011.68 1011.60 1011.60 1011.64 1011.64 1011.64 1011.60
1008.40 1008.36 1008.40 1008.44 1008.60 1008.68 1008.84 1008.92 1009.00 1009.08 1009.12 1009.16 1009.28 1009.32 1009.40 1009.56 1009.64 1009.72 1009.84 1009.96 1010.12 1010.24 1010.32 1010.40 1010.48 1010.56 1010.56 1010.72 1010.88 1010.96 1011.04 1011.08 1011.12 1011.20 1011.12 1011.08 1011.16 1011.16 1011.12 1011.08 1011.04 1011.00
1008.32 1008.28 1008.28 1008.36 1008.44 1008.52 1008.60 1008.68 1008.80 1008.88 1008.84 1008.96 1009.00 1009.00 1009.12 1009.24 1009.28 1009.32 1009.44 1009.56 1009.76 1009.84 1009.88 1009.88 1009.96 1010.00 1010.04 1010.20 1010.32 1010.44 1010.52 1010.52 1010.56 1010.60 1010.64 1010.60 1010.64 1010.60 1010.52 1010.52 1010.56 1010.60
1008.16 1008.16 1008.12 1008.20 1008.28 1008.32 1008.40 1008.44 1008.52 1008.52 1008.56 1008.68 1008.72 1008.80 1008.80 1008.80 1008.84 1008.92 1009.04 1009.20 1009.28 1009.28 1009.36 1009.40 1009.40 1009.44 1009.44 1009.60 1009.72 1009.76 1009.80 1009.84 1009.76 1009.88 1009.96 1009.96 1010.00 1009.88 1010.00 1010.16 1010.32 1010.28
1008.08 1008.04 1008.04 1008.08 1008.12 1008.12 1008.16 1008.16 1008.20 1008.28 1008.32 1008.40 1008.44 1008.52 1008.52 1008.48 1008.48 1008.56 1008.68 1008.76 1008.80 1008.84 1008.88 1008.88 1008.92 1009.00 1009.16 1009.28 1009.28 1009.36 1009.36 1009.32 1009.36 1009.40 1009.36 1009.40 1009.44 1009.52 1009.68 1009.84 1009.84 1009.96
1008.12 1008.08 1008.08 1008.08 1008.12 1008.16 1008.20 1008.20 1008.24 1008.24 1008.28 1008.24 1008.32 1008.32 1008.24 1008.28 1008.32 1008.32 1008.40 1008.48 1008.52 1008.52 1008.56 1008.56 1008.56 1008.76 1008.92 1008.96 1008.92 1008.88 1008.92 1008.96 1009.00 1009.04 1009.04 1008.96 1008.96 1009.04 1009.20 1009.32 1009.40 1009.40
1008.36 1008.28 1008.20 1008.20 1008.16 1008.12 1008.12 1008.12 1008.16 1008.16 1008.16 1008.16 1008.16 1008.16 1008.20 1008.24 1008.24 1008.32 1008.36 1008.40 1008.40 1008.44 1008.44 1008.44 1008.48 1008.60 1008.64 1008.60 1008.60 1008.64 1008.64 1008.60 1008.60 1008.60 1008.52 1008.52 1008.56 1008.64 1008.72 1008.80 1008.88 1008.96
1008.44 1008.36 1008.28 1008.28 1008.24 1008.28 1008.28 1008.28 1008.28 1008.28 1008.28 1008.24 1008.24 1008.28 1008.32 1008.40 1008.44 1008.48 1008.44 1008.44 1008.32 1008.28 1008.20 1008.12 1008.16 1008.20 1008.20 1008.20 1008.20 1008.24 1008.28 1008.32 1008.32 1008.28 1008.28 1008.24 1008.16 1008.20 1008.24 1008.36 1008.44 1008.52
1008.40 1008.28 1008.20 1008.24 1008.28 1008.28 1008.32 1008.36 1008.36 1008.36 1008.32 1008.32 1008.36 1008.36 1008.44 1008.48 1008.48 1008.48 1008.40 1008.36 1008.16 1008.08 1007.88 1007.88 1007.84 1007.76 1007.72 1007.68 1007.72 1007.76 1007.84 1007.88 1007.84 1007.88 1007.88 1007.88 1007.80 1007.80 1007.84 1007.88 1007.92 1008.00
1008.16 1008.16 1008.20 1008.24 1008.28 1008.32 1008.32 1008.36 1008.40 1008.40 1008.36 1008.32 1008.32 1008.32 1008.32 1008.36 1008.40 1008.44 1008.44 1008.36 1008.24 1008.20 1008.12 1008.08 1007.96 1007.80 1007.72 1007.72 1007.76 1007.72 1007.68 1007.60 1007.56 1007.60 1007.60 1007.56 1007.48 1007.48 1007.48 1007.48 1007.52 1007.52
1008.16 1008.16 1008.12 1008.20 1008.24 1008.28 1008.32 1008.40 1008.44 1008.44 1008.40 1008.36 1008.32 1008.36 1008.40 1008.40 1008.44 1008.44 1008.48 1008.44 1008.36 1008.24 1008.12 1008.00 1007.88 1007.72 1007.64 1007.68 1007.64 1007.64 1007.56 1007.48 1007.40 1007.32 1007.32 1007.28 1007.28 1007.24 1007.16 1007.16 1007.12 1007.16
1008.24 1008.24 1008.24 1008.24 1008.28 1008.40 1008.44 1008.48 1008.44 1008.44 1008.44 1008.40 1008.40 1008.40 1008.40 1008.40 1008.48 1008.44 1008.36 1008.32 1008.28 1008.12 1008.00 1007.76 1007.56 1007.32 1007.32 1007.36 1007.28 1007.28 1007.36 1007.32 1007.24 1007.08 1007.04 1007.00 1006.92 1006.92 1006.84 1006.80 1006.80 1006.84
1008.24 1008.32 1008.44 1008.44 1008.52 1008.52 1008.52 1008.52 1008.56 1008.60 1008.60 1008.60 1008.64 1008.64 1008.60 1008.68 1008.64 1008.56 1008.48 1008.40 1008.32 1008.16 1008.00 1007.72 1007.52 1007.32 1007.36 1007.16 1007.12 1007.04 1007.12 1007.12 1007.00 1006.88 1006.80 1006.64 1006.48 1006.44 1006.32 1006.36 1006.32 1006.36
1008.16 1008.28 1008.36 1008.40 1008.44 1008.44 1008.48 1008.52 1008.56 1008.64 1008.72 1008.76 1008.68 1008.68 1008.72 1008.68 1008.56 1008.64 1008.52 1008.52 1008.44 1008.24 1007.96 1007.68 1007.52 1007.32 1007.28 1007.00 1006.88 1006.84 1006.76 1006.84 1006.72 1006.60 1006.56 1006.28 1006.20 1006.08 1006.00 1005.96 1005.96 1006.00
1008.16 1008.24 1008.32 1008.40 1008.44 1008.48 1008.44 1008.44 1008.48 1008.48 1008.56 1008.64 1008.64 1008.64 1008.60 1008.52 1008.52 1008.44 1008.40 1008.36 1008.28 1008.08 1007.76 1007.56 1007.40 1007.28 1007.16 1006.96 1006.84 1006.72 1006.60 1006.64 1006.44 1006.24 1006.12 1005.96 1005.88 1005.80 1005.68 1005.60 1005.56 1005.64
1008.20 1008.24 1008.32 1008.40 1008.48 1008.52 1008.52 1008.48 1008.48 1008.44 1008.44 1008.40 1008.44 1008.44 1008.36 1008.20 1008.16 1008.20 1008.16 1008.20 1008.12 1008.00 1007.80 1007.44 1007.20 1007.08 1006.84 1006.60 1006.48 1006.44 1006.44 1006.48 1006.20 1006.04 1005.76 1005.52 1005.40 1005.44 1005.48 1005.40 1005.32 1005.28
1008.28 1008.28 1008.32 1008.40 1008.48 1008.56 1008.60 1008.56 1008.56 1008.52 1008.44 1008.36 1008.36 1008.28 1008.28 1008.20 1008.12 1008.20 1008.00 1007.92 1007.88 1007.88 1007.72 1007.20 1007.00 1007.08 1006.88 1006.76 1006.68 1006.40 1006.28 1006.20 1006.00 1005.80 1005.44 1005.16 1004.96 1004.96 1005.00 1004.96 1005.00 1005.00
1008.48 1008.40 1008.32 1008.36 1008.44 1008.44 1008.48 1008.56 1008.52 1008.44 1008.44 1008.40 1008.20 1008.08 1007.96 1007.92 1007.84 1007.72 1007.72 1007.68 1007.52 1007.52 1007.44 1006.92 1006.64 1006.80 1006.72 1006.64 1006.72 1006.84 1006.76 1006.24 1005.80 1005.48 1005.12 1004.88 1004.64 1004.64 1004.60 1004.48 1004.48 1004.56
1008.64 1008.64 1008.60 1008.60 1008.60 1008.64 1008.60 1008.60 1008.60 1008.60 1008.48 1008.36 1008.24 1007.92 1007.68 1007.60 1007.60 1007.40 1007.32 1007.36 1007.24 1007.04 1007.04 1006.76 1006.08 1006.44 1006.56 1006.52 1006.56 1006.56 1006.52 1006.36 1006.12 1005.72 1005.04 1004.76 1004.56 1004.44 1004.28 1004.12 1004.00 1004.12
1008.68 1008.72 1008.72 1008.76 1008.76 1008.76 1008.80 1008.72 1008.64 1008.56 1008.48 1008.44 1008.32 1008.16 1007.92 1007.72 1007.60 1007.44 1007.04 1006.92 1007.00 1006.80 1006.60 1006.60 1006.04 1006.00 1006.32 1006.28 1006.28 1006.28 1006.28 1006.12 1005.88 1005.60 1005.20 1004.80 1004.64 1004.08 1003.76 1003.76 1003.56 1003.68
1008.80 1008.84 1008.84 1008.80 1008.76 1008.76 1008.76 1008.76 1008.64 1008.56 1008.40 1008.28 1008.16 1008.12 1007.88 1007.72 1007.64 1007.48 1007.12 1006.64 1006.60 1006.60 1006.36 1006.32 1006.12 1005.72 1006.00 1006.00 1005.96 1005.92 1005.88 1005.80 1005.68 1005.52 1005.00 1004.72 1004.64 1004.24 1003.76 1003.44 1003.32 1003.24
Thickness
5730 5728 5727 5727 5727 5727 5726 5725 5725 5724 5723 5723 5722 5721 5720 5718 5716 5713 5712 5710 5708 5707 5706 5705 5703 5702 5700 5699 5697 5696 5694 5693 5692 5691 5690 5689 5688 5686 5684 5683 5681 5679
5730 5728 5726 5725 5725 5725 5725 5725 5724 5723 5723 5722 5721 5720 5719 5717 5715 5714 5712 5710 5709 5708 5706 5705 5704 5703 5701 5699 5697 5695 5693 5692 5691 5690 5689 5688 5688 5687 5685 5683 5681 5678
5729 5728 5726 5724 5724 5723 5723 5723 5722 5722 5721 5720 5720 5719 5717 5716 5715 5713 5712 5710 5708 5707 5706 5704 5703 5702 5701 5699 5696 5695 5693 5691 5690 5689 5688 5687 5687 5686 5685 5683 5680 5678
5726 5725 5725 5724 5723 5721 5720 5720 5719 5719 5718 5717 5717 5716 5716 5716 5714 5712 5711 5710 5707 5705 5704 5702 5701 5699 5698 5696 5694 5692 5690 5689 5688 5686 5684 5684 5684 5684 5683 5681 5679 5678
5724 5724 5724 5722 5720 5719 5717 5717 5716 5716 5715 5715 5714 5714 5714 5713 5712 5711 5709 5708 5706 5704 5702 5700 5698 5697 5694 5693 5690 5688 5686 5686 5685 5683 5682 5682 5681 5681 5680 5679 5678 5678
5720 5721 5721 5720 5718 5716 5714 5714 5713 5712 5712 5712 5712 5712 5711 5710 5709 5708 5707 5705 5703 5701 5699 5697 5696 5694 5693 5691 5689 5687 5685 5684 5684 5682 5681 5681 5680 5679 5679 5677 5677 5676
5716 5717 5717 5716 5715 5713 5712 5711 5710 5710 5710 5710 5709 5709 5708 5707 5705 5704 5703 5701 5700 5698 5697 5695 5694 5692 5691 5690 5688 5687 5686 5683 5682 5681 5680 5680 5678 5677 5676 5675 5675 5674
5711 5712 5712 5712 5711 5710 5709 5708 5707 5707 5707 5706 5706 5705 5704 5703 5702 5701 5700 5699 5697 5695 5694 5693 5692 5691 5690 5689 5687 5686 5684 5683 5682 5680 5679 5678 5676 5676 5675 5673 5672 5671
5705 5706 5706 5706 5706 5705 5705 5705 5704 5704 5704 5702 5701 5700 5700 5700 5698 5698 5696 5695 5694 5692 5692 5690 5690 5689 5688 5686 5685 5684 5682 5682 5681 5679 5678 5677 5676 5675 5673 5670 5669 5668
5698 5699 5699 5699 5700 5700 5700 5700 5699 5699 5698 5698 5697 5696 5695 5695 5694 5693 5692 5691 5691 5689 5689 5688 5686 5686 5684 5682 5681 5680 5679 5678 5677 5676 5675 5674 5673 5672 5669 5666 5666 5665
5688 5690 5690 5691 5692 5692 5693 5693 5692 5692 5691 5691 5691 5689 5689 5689 5688 5688 5687 5686 5686 5685 5684 5683 5682 5680 5678 5677 5676 5675 5674 5673 5673 5672 5671 5671 5670 5668 5666 5664 5663 5662
5679 5680 5681 5682 5683 5683 5684 5684 5684 5685 5684 5683 5683 5682 5682 5682 5681 5680 5680 5679 5679 5678 5677 5677 5675 5674 5673 5671 5670 5669 5668 5668 5667 5667 5667 5667 5666 5665 5662 5660 5659 5658
5670 5671 5672 5673 5673 5674 5675 5675 5675 5675 5675 5675 5675 5674 5673 5672 5672 5672 5671 5672 5672 5671 5672 5671 5671 5669 5668 5667 5665 5664 5663 5662 5662 5661 5662 5662 5661 5660 5659 5657 5656 5654
5662 5663 5663 5664 5664 5665 5665 5665 5666 5665 5665 5665 5665 5665 5664 5663 5663 5663 5663 5663 5664 5664 5665 5664 5664 5664 5663 5662 5660 5658 5657 5657 5656 5656 5656 5657 5656 5656 5655 5653 5652 5650
5655 5656 5656 5656 5656 5656 5656 5656 5657 5657 5656 5657 5656 5656 5656 5655 5654 5655 5654 5655 5655 5654 5655 5655 5655 5656 5655 5653 5651 5650 5650 5650 5650 5650 5649 5650 5650 5650 5650 5649 5648 5646
5648 5648 5648 5648 5648 5648 5648 5648 5649 5649 5649 5649 5649 5648 5648 5647 5647 5647 5646 5646 5646 5646 5647 5646 5648 5648 5646 5644 5643 5642 5641 5642 5643 5643 5643 5644 5644 5644 5644 5644 5643 5642
5640 5640 5640 5640 5640 5640 5640 5641 5641 5642 5642 5642 5642 5642 5641 5640 5640 5640 5639 5638 5638 5639 5640 5641 5642 5641 5639 5637 5636 5635 5634 5634 5636 5637 5637 5638 5638 5638 5639 5639 5637 5636
5633 5633 5633 5632 5632 5632 5632 5633 5633 5633 5633 5633 5634 5634 5633 5633 5633 5632 5632 5631 5631 5633 5633 5635 5636 5634 5632 5631 5631 5630 5629 5628 5630 5631 5632 5633 5634 5634 5634 5634 5633 5632
5626 5626 5626 5625 5625 5625 5625 5626 5625 5625 5625 5624 5625 5625 5625 5625 5625 5624 5625 5624 5624 5625 5627 5629 5629 5626 5625 5625 5625 5625 5623 5623 5625 5626 5627 5629 5630 5629 5630 5629 5629 5627
5619 5619 5618 5617 5617 5618 5618 5618 5617 5617 5617 5617 5617 5617 5617 5618 5617 5617 5617 5616 5616 5618 5620 5622 5622 5620 5618 5618 5618 5618 5617 5617 5619 5621 5622 5624 5625 5624 5624 5624 5623 5621
5611 5611 5610 5610 5609 5609 5609 5609 5609 5609 5609 5609 5610 5610 5610 5610 5610 5610 5610 5610 5609 5610 5613 5616 5616 5612 5612 5612 5612 5612 5611 5610 5612 5614 5616 5619 5619 5618 5617 5617 5617 5615
5602 5602 5602 5602 5601 5600 5601 5600 5600 5601 5600 5601 5603 5603 5603 5603 5603 5603 5604 5604 5604 5604 5606 5611 5611 5606 5604 5605 5603 5603 5603 5603 5606 5608 5610 5613 5614 5613 5611 5611 5610 5609
5592 5593 5594 5594 5593 5593 5593 5592 5592 5592 5592 5594 5596 5596 5597 5596 5597 5598 5598 5598 5599 5598 5599 5604 5606 5602 5598 5598 5596 5593 5594 5595 5598 5601 5604 5608 5609 5607 5606 5606 5605 5604
5582 5583 5584 5584 5584 5584 5583 5583 5584 5584 5584 5585 5587 5589 5590 5590 5590 5592 5593 5592 5593 5594 5594 5597 5601 5598 5592 5591 5590 5587 5586 5588 5589 5592 5597 5600 5601 5601 5601 5601 5601 5600
5574 5574 5574 5574 5574 5574 5574 5574 5574 5575 5575 5576 5577 5579 5582 5582 5582 5584 5587 5587 5586 5587 5588 5589 5593 5592 5587 5584 5584 5581 5581 5582 5582 5584 5590 5592 5592 5595 5597 5598 5597 5596
5564 5564 5565 5565 5565 5566 5566 5565 5566 5567 5568 5568 5569 5571 5573 5575 5574 5575 5580 5583 5581 5581 5583 5583 5584 5585 5582 5578 5578 5576 5575 5575 5575 5578 5581 5583 5584 5587 5591 5593 5592 5591